UAE725 OMDB-HTDA

Flight info

Callsign UAE725
Flight time 4h 56m
Altitude 34000
Route ANVIX R401 GIDIS G783 ELUDA/N0482F360 G783 UKRAG/N0485F370 L710 KUKDI/N0483F360 B400 RIGAM/N0484F380 B400 VEDET UL437 ELAVA DUKBO1C
Aircraft B77W/H-SDE1E2E3FGHIJ2J3J4J5M1RWXY/LB1D1

Departure

Time 2026-04-22 09:34
Airport Dubai International Airport (OMDB)

Arrival

Time 2026-04-22 14:30
Airport Julius Nyerere International Airport (HTDA)
Time Latitude Longitude Altitude Speed Heading
2026-04-22 08:40 25.25356 55.35077 45 ft 0 kts 31°
2026-04-22 09:18 25.25352 55.35075 44 ft 2 kts 31°
2026-04-22 09:18 25.25331 55.35061 44 ft 3 kts 28°
2026-04-22 09:19 25.25308 55.35052 44 ft 3 kts
2026-04-22 09:19 25.25285 55.35054 44 ft 3 kts 342°
2026-04-22 09:19 25.25267 55.35064 44 ft 0 kts 324°
2026-04-22 09:19 25.25272 55.35059 44 ft 2 kts 322°
2026-04-22 09:20 25.25289 55.35040 44 ft 3 kts 306°
2026-04-22 09:20 25.25304 55.35015 44 ft 3 kts 302°
2026-04-22 09:20 25.25308 55.35007 44 ft 0 kts 302°
2026-04-22 09:23 25.25309 55.35006 44 ft 0 kts 302°
2026-04-22 09:23 25.25315 55.34995 44 ft 3 kts 302°
2026-04-22 09:23 25.25332 55.34966 44 ft 5 kts 301°
2026-04-22 09:24 25.25358 55.34921 44 ft 8 kts 314°
2026-04-22 09:24 25.25417 55.34895 44 ft 10 kts 351°
2026-04-22 09:24 25.25489 55.34919 44 ft 12 kts 31°
2026-04-22 09:24 25.25566 55.34971 44 ft 13 kts 31°
2026-04-22 09:25 25.25651 55.35028 44 ft 15 kts 30°
2026-04-22 09:25 25.25726 55.35077 44 ft 8 kts 31°
2026-04-22 09:25 25.25738 55.35092 44 ft 2 kts 71°
2026-04-22 09:25 25.25736 55.35119 44 ft 4 kts 105°
2026-04-22 09:26 25.25728 55.35167 44 ft 7 kts 82°
2026-04-22 09:26 25.25764 55.35219 44 ft 9 kts 34°
2026-04-22 09:26 25.25830 55.35261 44 ft 11 kts 32°
2026-04-22 09:26 25.25905 55.35311 44 ft 13 kts 30°
2026-04-22 09:27 25.25986 55.35372 44 ft 14 kts 52°
2026-04-22 09:27 25.25999 55.35485 44 ft 16 kts 103°
2026-04-22 09:27 25.25949 55.35601 44 ft 17 kts 119°
2026-04-22 09:27 25.25884 55.35720 45 ft 18 kts 121°
2026-04-22 09:28 25.25813 55.35846 45 ft 19 kts 121°
2026-04-22 09:28 25.25741 55.35978 45 ft 19 kts 120°
2026-04-22 09:28 25.25673 55.36100 45 ft 18 kts 122°
2026-04-22 09:28 25.25606 55.36219 45 ft 17 kts 121°
2026-04-22 09:29 25.25543 55.36331 45 ft 17 kts 121°
2026-04-22 09:29 25.25476 55.36451 45 ft 18 kts 121°
2026-04-22 09:29 25.25407 55.36577 45 ft 19 kts 121°
2026-04-22 09:29 25.25334 55.36710 45 ft 20 kts 121°
2026-04-22 09:30 25.25256 55.36847 45 ft 21 kts 122°
2026-04-22 09:30 25.25177 55.36991 45 ft 22 kts 121°
2026-04-22 09:30 25.25094 55.37139 45 ft 23 kts 121°
2026-04-22 09:30 25.25010 55.37292 45 ft 23 kts 121°
2026-04-22 09:31 25.24923 55.37450 45 ft 24 kts 122°
2026-04-22 09:31 25.24836 55.37605 45 ft 22 kts 121°
2026-04-22 09:31 25.24757 55.37747 45 ft 20 kts 121°
2026-04-22 09:31 25.24714 55.37831 45 ft 6 kts 98°
2026-04-22 09:32 25.24731 55.37871 45 ft 5 kts 41°
2026-04-22 09:32 25.24762 55.37895 45 ft 5 kts 33°
2026-04-22 09:32 25.24790 55.37915 45 ft 4 kts 32°
2026-04-22 09:32 25.24816 55.37932 45 ft 4 kts 23°
2026-04-22 09:33 25.24844 55.37930 45 ft 4 kts 334°
2026-04-22 09:33 25.24871 55.37901 45 ft 7 kts 306°
2026-04-22 09:33 25.24936 55.37789 45 ft 43 kts 302°
2026-04-22 09:33 25.25246 55.37235 45 ft 121 kts 301°
2026-04-22 09:34 25.25807 55.36225 109 ft 183 kts 303°
2026-04-22 09:34 25.26493 55.34964 731 ft 201 kts 301°
2026-04-22 09:34 25.27212 55.33659 1670 ft 197 kts 301°
2026-04-22 09:35 25.28652 55.31081 2884 ft 202 kts 298°
2026-04-22 09:35 25.29102 55.29621 3407 ft 204 kts 273°
2026-04-22 09:35 25.28793 55.27545 3821 ft 217 kts 244°
2026-04-22 09:35 25.28348 55.26535 4066 ft 228 kts 242°
2026-04-22 09:36 25.27642 55.24946 4711 ft 234 kts 243°
2026-04-22 09:36 25.26939 55.23310 5441 ft 236 kts 243°
2026-04-22 09:36 25.26247 55.21682 6091 ft 240 kts 243°
2026-04-22 09:36 25.25537 55.20009 6781 ft 241 kts 244°
2026-04-22 09:37 25.24734 55.18386 7415 ft 244 kts 230°
2026-04-22 09:37 25.23420 55.17190 7955 ft 254 kts 206°
2026-04-22 09:37 25.21673 55.16743 8454 ft 264 kts 181°
2026-04-22 09:37 25.19840 55.16952 9163 ft 268 kts 164°
2026-04-22 09:38 25.18169 55.17956 9491 ft 289 kts 138°
2026-04-22 09:38 25.16977 55.19816 9931 ft 304 kts 117°
2026-04-22 09:38 25.16083 55.21923 10692 ft 305 kts 116°
2026-04-22 09:38 25.15137 55.24048 11376 ft 310 kts 118°
2026-04-22 09:39 25.14156 55.26144 12091 ft 315 kts 117°
2026-04-22 09:39 25.13193 55.28378 12519 ft 332 kts 116°
2026-04-22 09:39 25.12205 55.30756 12924 ft 349 kts 115°
2026-04-22 09:39 25.11172 55.33250 13396 ft 365 kts 115°
2026-04-22 09:40 25.10090 55.35861 13911 ft 380 kts 115°
2026-04-22 09:40 25.08973 55.38556 14473 ft 394 kts 115°
2026-04-22 09:40 25.07814 55.41351 15075 ft 407 kts 115°
2026-04-22 09:40 25.06641 55.44180 15800 ft 415 kts 116°
2026-04-22 09:41 25.05426 55.47112 16704 ft 418 kts 116°
2026-04-22 09:41 25.04222 55.50011 17594 ft 421 kts 116°
2026-04-22 09:41 25.03011 55.52928 18391 ft 427 kts 116°
2026-04-22 09:41 25.01691 55.55917 18975 ft 435 kts 121°
2026-04-22 09:42 25.00173 55.58781 19659 ft 441 kts 122°
2026-04-22 09:42 24.98580 55.61724 20408 ft 447 kts 122°
2026-04-22 09:42 24.96993 55.64656 21118 ft 452 kts 122°
2026-04-22 09:42 24.95367 55.67659 21742 ft 459 kts 122°
2026-04-22 09:43 24.93644 55.70663 22402 ft 464 kts 127°
2026-04-22 09:43 24.91747 55.73560 23053 ft 469 kts 128°
2026-04-22 09:43 24.89824 55.76453 23685 ft 475 kts 128°
2026-04-22 09:43 24.87853 55.79419 24295 ft 482 kts 128°
2026-04-22 09:44 24.85857 55.82423 24906 ft 487 kts 128°
2026-04-22 09:44 24.83856 55.85433 25511 ft 492 kts 128°
2026-04-22 09:44 24.81626 55.88339 26034 ft 496 kts 137°
2026-04-22 09:44 24.79040 55.90819 26566 ft 499 kts 146°
2026-04-22 09:45 24.76088 55.92880 27117 ft 500 kts 155°
2026-04-22 09:45 24.72934 55.94403 27670 ft 500 kts 165°
2026-04-22 09:45 24.69591 55.95392 28228 ft 499 kts 174°
2026-04-22 09:45 24.66118 55.95818 28779 ft 497 kts 183°
2026-04-22 09:46 24.62703 55.95666 29359 ft 494 kts 192°
2026-04-22 09:46 24.59335 55.94942 30083 ft 487 kts 201°
2026-04-22 09:46 24.56159 55.93673 30924 ft 477 kts 210°
2026-04-22 09:46 24.53307 55.91972 31700 ft 467 kts 219°
2026-04-22 09:47 24.50729 55.89851 32419 ft 458 kts 227°
2026-04-22 09:47 24.48525 55.87359 33070 ft 449 kts 236°
2026-04-22 09:47 24.46754 55.84607 33676 ft 442 kts 242°
2026-04-22 09:47 24.45012 55.81797 33857 ft 449 kts 239°
2026-04-22 09:48 24.41020 55.76553 33856 ft 446 kts 233°
2026-04-22 09:48 24.36584 55.71562 33838 ft 450 kts 230°
2026-04-22 09:49 24.31994 55.66786 33833 ft 452 kts 229°
2026-04-22 09:49 24.27150 55.62263 33821 ft 457 kts 220°
2026-04-22 09:50 24.21342 55.59215 33821 ft 477 kts 204°
2026-04-22 09:50 24.14899 55.57270 33825 ft 478 kts 202°
2026-04-22 09:51 24.08475 55.55373 33827 ft 478 kts 202°
2026-04-22 09:51 24.01985 55.53446 33823 ft 480 kts 202°
2026-04-22 09:52 23.95539 55.51535 33822 ft 479 kts 202°
2026-04-22 09:52 23.89073 55.49618 33816 ft 480 kts 202°
2026-04-22 09:53 23.82610 55.47703 33916 ft 479 kts 202°
2026-04-22 09:53 23.79387 55.46744 34072 ft 483 kts 202°
2026-04-22 09:53 23.76170 55.45790 34227 ft 481 kts 202°
2026-04-22 09:54 23.72926 55.44828 34384 ft 482 kts 202°
2026-04-22 09:54 23.69691 55.43868 34535 ft 481 kts 202°
2026-04-22 09:54 23.66449 55.42908 34691 ft 480 kts 202°
2026-04-22 09:54 23.63229 55.41954 34849 ft 481 kts 202°
2026-04-22 09:55 23.59963 55.40986 35001 ft 485 kts 202°
2026-04-22 09:55 23.56662 55.40021 35341 ft 488 kts 200°
2026-04-22 09:55 23.53281 55.39426 35729 ft 497 kts 192°
2026-04-22 09:55 23.49711 55.39370 35777 ft 506 kts 182°
2026-04-22 09:56 23.42736 55.40870 35787 ft 513 kts 171°
2026-04-22 09:56 23.35800 55.43069 35781 ft 517 kts 169°
2026-04-22 09:57 23.28913 55.45303 35782 ft 515 kts 169°
2026-04-22 09:57 23.21979 55.47523 35783 ft 517 kts 169°
2026-04-22 09:58 23.15035 55.49731 35785 ft 516 kts 169°
2026-04-22 09:58 23.08118 55.51918 35787 ft 519 kts 169°
2026-04-22 09:59 23.01202 55.54092 35789 ft 516 kts 169°
2026-04-22 09:59 22.94227 55.56235 35787 ft 518 kts 170°
2026-04-22 10:00 22.87263 55.58371 35783 ft 518 kts 169°
2026-04-22 10:00 22.80279 55.60513 35782 ft 517 kts 170°
2026-04-22 10:01 22.73326 55.62642 35787 ft 519 kts 170°
2026-04-22 10:01 22.66401 55.64760 35787 ft 519 kts 169°
2026-04-22 10:02 22.59372 55.66910 35789 ft 519 kts 170°
2026-04-22 10:02 22.52411 55.69041 35789 ft 519 kts 169°
2026-04-22 10:03 22.45402 55.71184 35789 ft 520 kts 169°
2026-04-22 10:03 22.38463 55.73304 35786 ft 518 kts 169°
2026-04-22 10:04 22.31448 55.75444 35785 ft 519 kts 169°
2026-04-22 10:04 22.24444 55.77250 35783 ft 511 kts 179°
2026-04-22 10:05 22.17337 55.78003 35786 ft 511 kts 181°
2026-04-22 10:05 22.10233 55.78704 35794 ft 511 kts 181°
2026-04-22 10:06 22.03123 55.79408 35787 ft 511 kts 181°
2026-04-22 10:06 21.96021 55.80113 35779 ft 509 kts 181°
2026-04-22 10:07 21.88910 55.80817 35777 ft 511 kts 181°
2026-04-22 10:07 21.81804 55.81520 35772 ft 512 kts 181°
2026-04-22 10:08 21.74748 55.82219 35770 ft 511 kts 181°
2026-04-22 10:08 21.67637 55.82922 35772 ft 512 kts 181°
2026-04-22 10:09 21.60487 55.83624 35775 ft 512 kts 181°
2026-04-22 10:09 21.53390 55.84321 35776 ft 511 kts 181°
2026-04-22 10:10 21.46280 55.85017 35779 ft 513 kts 181°
2026-04-22 10:10 21.39117 55.85719 35783 ft 512 kts 180°
2026-04-22 10:11 21.32007 55.86415 35786 ft 512 kts 180°
2026-04-22 10:11 21.24896 55.87110 35799 ft 515 kts 180°
2026-04-22 10:12 21.17685 55.87813 35802 ft 514 kts 180°
2026-04-22 10:12 21.10585 55.88505 35810 ft 512 kts 180°
2026-04-22 10:13 21.03441 55.89199 35811 ft 515 kts 180°
2026-04-22 10:13 20.96236 55.89899 35814 ft 515 kts 180°
2026-04-22 10:14 20.89047 55.90597 35812 ft 514 kts 180°
2026-04-22 10:14 20.81915 55.91289 35809 ft 514 kts 180°
2026-04-22 10:15 20.74749 55.91984 35811 ft 514 kts 180°
2026-04-22 10:15 20.67591 55.92677 35807 ft 515 kts 180°
2026-04-22 10:16 20.60416 55.93372 35813 ft 515 kts 180°
2026-04-22 10:16 20.53283 55.94061 35813 ft 516 kts 180°
2026-04-22 10:17 20.46123 55.94754 35816 ft 515 kts 180°
2026-04-22 10:17 20.38918 55.95448 35812 ft 517 kts 180°
2026-04-22 10:18 20.31742 55.96141 35807 ft 516 kts 180°
2026-04-22 10:18 20.24554 55.96827 35807 ft 518 kts 180°
2026-04-22 10:19 20.17379 55.97509 35804 ft 517 kts 180°
2026-04-22 10:19 20.10173 55.98195 35803 ft 517 kts 180°
2026-04-22 10:20 20.02963 55.98617 35807 ft 514 kts 185°
2026-04-22 10:20 19.95784 55.98747 35802 ft 515 kts 185°
2026-04-22 10:21 19.88620 55.98895 35814 ft 514 kts 185°
2026-04-22 10:21 19.81450 55.99058 35818 ft 513 kts 184°
2026-04-22 10:22 19.74269 55.99227 35825 ft 515 kts 184°
2026-04-22 10:22 19.67014 55.99402 35824 ft 519 kts 184°
2026-04-22 10:23 19.59806 55.99580 35830 ft 516 kts 184°
2026-04-22 10:23 19.52639 55.99228 35826 ft 507 kts 198°
2026-04-22 10:24 19.46110 55.96901 35831 ft 487 kts 215°
2026-04-22 10:24 19.40180 55.93416 35843 ft 486 kts 217°
2026-04-22 10:25 19.34329 55.89897 35847 ft 485 kts 217°
2026-04-22 10:25 19.28434 55.86340 35852 ft 485 kts 217°
2026-04-22 10:26 19.22541 55.82782 35850 ft 484 kts 217°
2026-04-22 10:26 19.16675 55.79239 35856 ft 486 kts 217°
2026-04-22 10:27 19.10790 55.75686 35866 ft 485 kts 217°
2026-04-22 10:27 19.04919 55.72143 35861 ft 485 kts 217°
2026-04-22 10:28 18.99015 55.68583 35856 ft 486 kts 217°
2026-04-22 10:28 18.93151 55.65051 35864 ft 485 kts 217°
2026-04-22 10:29 18.87241 55.61493 35850 ft 485 kts 217°
2026-04-22 10:29 18.81357 55.57953 35842 ft 487 kts 217°
2026-04-22 10:30 18.75448 55.54402 35838 ft 485 kts 217°
2026-04-22 10:30 18.69578 55.50877 35839 ft 484 kts 217°
2026-04-22 10:31 18.63738 55.47373 35842 ft 485 kts 217°
2026-04-22 10:31 18.57839 55.43836 35830 ft 484 kts 217°
2026-04-22 10:32 18.51954 55.40310 35832 ft 485 kts 217°
2026-04-22 10:32 18.46057 55.36781 35840 ft 485 kts 217°
2026-04-22 10:33 18.40182 55.33266 35858 ft 485 kts 217°
2026-04-22 10:33 18.34280 55.29739 35856 ft 484 kts 217°
2026-04-22 10:34 18.28413 55.26237 35861 ft 485 kts 217°
2026-04-22 10:34 18.22534 55.22731 35860 ft 484 kts 217°
2026-04-22 10:35 18.16619 55.19205 35865 ft 487 kts 217°
2026-04-22 10:35 18.10471 55.16069 35871 ft 493 kts 210°
2026-04-22 10:36 18.04150 55.13235 35870 ft 492 kts 210°
2026-04-22 10:36 17.97825 55.10402 35880 ft 492 kts 210°
2026-04-22 10:37 17.88341 55.06150 35886 ft 493 kts 210°
2026-04-22 10:38 17.82021 55.03319 35887 ft 492 kts 210°
2026-04-22 10:38 17.75691 55.00485 35904 ft 493 kts 210°
2026-04-22 10:39 17.69373 54.97658 35911 ft 491 kts 210°
2026-04-22 10:39 17.63107 54.94856 35927 ft 491 kts 210°
2026-04-22 10:40 17.56793 54.92034 35942 ft 493 kts 210°
2026-04-22 10:40 17.50482 54.89216 35949 ft 494 kts 210°
2026-04-22 10:41 17.44144 54.86388 35970 ft 494 kts 210°
2026-04-22 10:41 17.37820 54.83569 35986 ft 493 kts 210°
2026-04-22 10:42 17.31473 54.80742 36004 ft 493 kts 210°
2026-04-22 10:42 17.25330 54.77623 36019 ft 482 kts 219°
2026-04-22 10:43 17.19652 54.73838 35987 ft 486 kts 219°
2026-04-22 10:43 17.13934 54.70006 35954 ft 483 kts 219°
2026-04-22 10:44 17.08282 54.66222 35918 ft 484 kts 219°
2026-04-22 10:44 17.02595 54.62421 35890 ft 482 kts 219°
2026-04-22 10:45 16.96938 54.58641 35867 ft 483 kts 219°
2026-04-22 10:45 16.91240 54.54837 35862 ft 483 kts 219°
2026-04-22 10:46 16.85574 54.51057 35850 ft 482 kts 219°
2026-04-22 10:46 16.79899 54.47272 35850 ft 484 kts 219°
2026-04-22 10:47 16.74228 54.43493 35853 ft 484 kts 219°
2026-04-22 10:47 16.68549 54.39713 35858 ft 482 kts 219°
2026-04-22 10:48 16.62877 54.35937 35857 ft 484 kts 219°
2026-04-22 10:48 16.57196 54.32161 35869 ft 483 kts 219°
2026-04-22 10:49 16.51510 54.28382 35869 ft 483 kts 219°
2026-04-22 10:49 16.45845 54.24620 35873 ft 484 kts 219°
2026-04-22 10:50 16.40191 54.20869 35878 ft 483 kts 218°
2026-04-22 10:50 16.34470 54.17075 35875 ft 484 kts 218°
2026-04-22 10:51 16.28813 54.13327 35876 ft 484 kts 218°
2026-04-22 10:51 16.23135 54.09567 35873 ft 484 kts 218°
2026-04-22 10:52 16.17416 54.05783 35873 ft 483 kts 218°
2026-04-22 10:52 16.11745 54.02034 35871 ft 482 kts 218°
2026-04-22 10:53 16.06105 53.98307 35871 ft 482 kts 218°
2026-04-22 10:53 16.00412 53.94547 35872 ft 484 kts 218°
2026-04-22 10:54 15.94723 53.90794 35872 ft 483 kts 218°
2026-04-22 10:54 15.89065 53.87062 35870 ft 485 kts 218°
2026-04-22 10:55 15.83371 53.83275 35862 ft 483 kts 219°
2026-04-22 10:55 15.77740 53.79506 35864 ft 483 kts 219°
2026-04-22 10:56 15.72082 53.75724 35864 ft 484 kts 219°
2026-04-22 10:56 15.66393 53.71925 35863 ft 483 kts 218°
2026-04-22 10:57 15.60720 53.68139 35863 ft 483 kts 219°
2026-04-22 10:57 15.55093 53.64388 35864 ft 483 kts 219°
2026-04-22 10:58 15.49406 53.60598 35863 ft 484 kts 218°
2026-04-22 10:58 15.43769 53.56845 35862 ft 485 kts 218°
2026-04-22 10:59 15.38023 53.53130 35858 ft 484 kts 218°
2026-04-22 10:59 15.32290 53.49462 35857 ft 485 kts 218°
2026-04-22 11:00 15.26557 53.45793 35851 ft 485 kts 218°
2026-04-22 11:00 15.20802 53.42109 35848 ft 484 kts 217°
2026-04-22 11:01 15.15088 53.38453 35846 ft 485 kts 217°
2026-04-22 11:01 15.09329 53.34769 35845 ft 484 kts 217°
2026-04-22 11:02 15.03603 53.31108 35855 ft 485 kts 217°
2026-04-22 11:02 14.97839 53.27427 35854 ft 485 kts 217°
2026-04-22 11:03 14.92083 53.23751 35855 ft 485 kts 217°
2026-04-22 11:03 14.86356 53.20097 35844 ft 484 kts 217°
2026-04-22 11:04 14.80602 53.16428 35847 ft 485 kts 217°
2026-04-22 11:04 14.74847 53.12760 35846 ft 485 kts 217°
2026-04-22 11:05 14.69053 53.09069 35846 ft 485 kts 217°
2026-04-22 11:05 14.63314 53.05407 35846 ft 484 kts 217°
2026-04-22 11:06 14.57616 53.01743 35845 ft 485 kts 217°
2026-04-22 11:06 14.51873 52.98053 35846 ft 484 kts 217°
2026-04-22 11:07 14.46134 52.94368 35847 ft 485 kts 217°
2026-04-22 11:07 14.40409 52.90695 35847 ft 486 kts 217°
2026-04-22 11:08 14.34657 52.87008 35847 ft 485 kts 217°
2026-04-22 11:08 14.28908 52.83325 35847 ft 485 kts 217°
2026-04-22 11:09 14.23153 52.79640 35850 ft 485 kts 217°
2026-04-22 11:09 14.17442 52.75986 35858 ft 485 kts 217°
2026-04-22 11:10 14.11680 52.72301 35859 ft 486 kts 217°
2026-04-22 11:10 14.05926 52.68624 35863 ft 485 kts 217°
2026-04-22 11:11 14.00186 52.64959 35863 ft 485 kts 217°
2026-04-22 11:11 13.94463 52.61305 35861 ft 485 kts 217°
2026-04-22 11:12 13.88696 52.57626 35851 ft 485 kts 217°
2026-04-22 11:12 13.82960 52.53969 35843 ft 486 kts 217°
2026-04-22 11:13 13.77200 52.50299 35841 ft 486 kts 217°
2026-04-22 11:13 13.71434 52.46627 35840 ft 486 kts 217°
2026-04-22 11:14 13.65662 52.42953 35841 ft 486 kts 217°
2026-04-22 11:14 13.58944 52.38681 35842 ft 486 kts 217°
2026-04-22 11:15 13.54147 52.35632 35842 ft 486 kts 217°
2026-04-22 11:15 13.48393 52.31975 35850 ft 487 kts 216°
2026-04-22 11:16 13.42611 52.28303 35851 ft 487 kts 217°
2026-04-22 11:16 13.36838 52.24642 35851 ft 487 kts 216°
2026-04-22 11:17 13.31081 52.21002 35851 ft 487 kts 216°
2026-04-22 11:17 13.25290 52.17343 35851 ft 486 kts 216°
2026-04-22 11:18 13.19508 52.13691 35852 ft 487 kts 216°
2026-04-22 11:18 13.13754 52.10058 35851 ft 487 kts 216°
2026-04-22 11:19 13.07939 52.06389 35851 ft 487 kts 216°
2026-04-22 11:19 13.01211 52.02147 35851 ft 486 kts 216°
2026-04-22 11:20 12.96398 51.99114 35846 ft 487 kts 216°
2026-04-22 11:20 12.90606 51.95465 35836 ft 487 kts 216°
2026-04-22 11:21 12.84819 51.91822 35825 ft 487 kts 216°
2026-04-22 11:21 12.79041 51.88187 35823 ft 488 kts 216°
2026-04-22 11:22 12.73251 51.84546 35821 ft 486 kts 216°
2026-04-22 11:22 12.67482 51.80920 35821 ft 486 kts 216°
2026-04-22 11:23 12.61734 51.77309 35821 ft 485 kts 216°
2026-04-22 11:23 12.55965 51.73687 35822 ft 486 kts 216°
2026-04-22 11:24 12.50200 51.70069 35818 ft 485 kts 216°
2026-04-22 11:24 12.44440 51.66456 35819 ft 485 kts 216°
2026-04-22 11:25 12.38673 51.62841 35816 ft 484 kts 216°
2026-04-22 11:25 12.32931 51.59243 35812 ft 484 kts 216°
2026-04-22 11:26 12.27182 51.55644 35809 ft 484 kts 216°
2026-04-22 11:26 12.21439 51.52049 35809 ft 485 kts 216°
2026-04-22 11:27 12.15682 51.48447 35809 ft 484 kts 216°
2026-04-22 11:27 12.09896 51.44830 35808 ft 484 kts 216°
2026-04-22 11:28 12.04148 51.41238 35810 ft 483 kts 216°
2026-04-22 11:28 11.98392 51.37641 35808 ft 484 kts 216°
2026-04-22 11:29 11.92623 51.34036 35808 ft 484 kts 216°
2026-04-22 11:29 11.86893 51.30457 35815 ft 483 kts 216°
2026-04-22 11:30 11.81163 51.26880 35811 ft 483 kts 216°
2026-04-22 11:30 11.75395 51.23281 35812 ft 484 kts 216°
2026-04-22 11:31 11.69642 51.19693 35811 ft 484 kts 216°
2026-04-22 11:31 11.63882 51.16103 35817 ft 484 kts 216°
2026-04-22 11:32 11.58139 51.12525 35834 ft 484 kts 216°
2026-04-22 11:32 11.52340 51.08914 35853 ft 483 kts 216°
2026-04-22 11:33 11.46621 51.05355 35867 ft 484 kts 216°
2026-04-22 11:33 11.40868 51.01776 35883 ft 484 kts 216°
2026-04-22 11:34 11.35091 50.98179 35897 ft 484 kts 216°
2026-04-22 11:34 11.29336 50.94593 35911 ft 484 kts 216°
2026-04-22 11:35 11.23569 50.91003 35914 ft 484 kts 216°
2026-04-22 11:35 11.17829 50.87432 35914 ft 484 kts 216°
2026-04-22 11:36 11.12056 50.83842 35898 ft 484 kts 216°
2026-04-22 11:36 11.06296 50.80261 35893 ft 483 kts 216°
2026-04-22 11:37 11.00582 50.76711 35888 ft 483 kts 215°
2026-04-22 11:37 10.94822 50.73134 35892 ft 483 kts 215°
2026-04-22 11:38 10.89053 50.69552 35894 ft 484 kts 215°
2026-04-22 11:38 10.80391 50.64178 35895 ft 485 kts 215°
2026-04-22 11:39 10.74645 50.60615 35892 ft 485 kts 215°
2026-04-22 11:39 10.68879 50.57042 35896 ft 484 kts 215°
2026-04-22 11:40 10.63101 50.53462 35900 ft 485 kts 215°
2026-04-22 11:40 10.57356 50.49905 35886 ft 483 kts 215°
2026-04-22 11:41 10.51588 50.46335 35887 ft 485 kts 215°
2026-04-22 11:41 10.45808 50.42759 35885 ft 485 kts 215°
2026-04-22 11:42 10.40015 50.39177 35879 ft 484 kts 215°
2026-04-22 11:42 10.34275 50.35628 35875 ft 484 kts 215°
2026-04-22 11:43 10.28477 50.32046 35882 ft 485 kts 214°
2026-04-22 11:43 10.22732 50.28498 35878 ft 485 kts 214°
2026-04-22 11:44 10.16945 50.24926 35885 ft 485 kts 214°
2026-04-22 11:44 10.11162 50.21357 35894 ft 486 kts 214°
2026-04-22 11:45 10.05373 50.17787 35907 ft 485 kts 215°
2026-04-22 11:45 9.99594 50.14225 35933 ft 485 kts 214°
2026-04-22 11:46 9.93835 50.10675 35936 ft 485 kts 214°
2026-04-22 11:46 9.88028 50.07098 35934 ft 485 kts 215°
2026-04-22 11:47 9.82256 50.03543 35937 ft 486 kts 214°
2026-04-22 11:47 9.76450 49.99970 35948 ft 487 kts 214°
2026-04-22 11:48 9.70632 49.96390 35946 ft 486 kts 214°
2026-04-22 11:48 9.64832 49.92824 35944 ft 486 kts 214°
2026-04-22 11:49 9.59020 49.89251 35939 ft 486 kts 214°
2026-04-22 11:49 9.53231 49.85693 35936 ft 487 kts 214°
2026-04-22 11:50 9.47447 49.82141 35932 ft 485 kts 214°
2026-04-22 11:50 9.41664 49.78590 35932 ft 484 kts 214°
2026-04-22 11:51 9.35891 49.75047 35931 ft 485 kts 214°
2026-04-22 11:51 9.30097 49.71492 35925 ft 485 kts 214°
2026-04-22 11:52 9.24332 49.67956 35918 ft 486 kts 214°
2026-04-22 11:52 9.18534 49.64403 35916 ft 486 kts 214°
2026-04-22 11:53 9.12730 49.60848 35907 ft 486 kts 214°
2026-04-22 11:53 9.06935 49.57300 35905 ft 485 kts 214°
2026-04-22 11:54 9.01186 49.53782 35910 ft 485 kts 214°
2026-04-22 11:54 8.95386 49.50233 35911 ft 485 kts 214°
2026-04-22 11:55 8.89608 49.46699 35912 ft 486 kts 214°
2026-04-22 11:55 8.83806 49.43152 35911 ft 486 kts 214°
2026-04-22 11:56 8.78020 49.39616 35915 ft 485 kts 214°
2026-04-22 11:56 8.72229 49.36078 35916 ft 485 kts 214°
2026-04-22 11:57 8.66435 49.32539 35920 ft 485 kts 214°
2026-04-22 11:57 8.60617 49.28988 35915 ft 485 kts 214°
2026-04-22 11:58 8.54836 49.25464 35905 ft 485 kts 214°
2026-04-22 11:58 8.49022 49.21920 35898 ft 484 kts 214°
2026-04-22 11:59 8.43275 49.18418 35890 ft 484 kts 214°
2026-04-22 11:59 8.37496 49.14898 35888 ft 484 kts 214°
2026-04-22 12:00 8.31720 49.11381 35888 ft 485 kts 214°
2026-04-22 12:00 8.25970 49.07840 35881 ft 482 kts 219°
2026-04-22 12:01 8.20252 49.04288 35848 ft 481 kts 219°
2026-04-22 12:01 8.14523 49.00759 35849 ft 478 kts 219°
2026-04-22 12:02 8.08849 48.97286 35862 ft 475 kts 219°
2026-04-22 12:02 8.03216 48.93851 35878 ft 471 kts 219°
2026-04-22 12:03 7.97480 48.90433 35917 ft 484 kts 213°
2026-04-22 12:03 7.91674 48.86964 35915 ft 483 kts 214°
2026-04-22 12:04 7.85869 48.83470 35906 ft 482 kts 214°
2026-04-22 12:04 7.80081 48.79973 35904 ft 482 kts 214°
2026-04-22 12:05 7.74324 48.76489 35900 ft 482 kts 214°
2026-04-22 12:05 7.68566 48.73000 35894 ft 481 kts 214°
2026-04-22 12:06 7.62794 48.69502 35886 ft 482 kts 214°
2026-04-22 12:06 7.57055 48.66024 35879 ft 482 kts 214°
2026-04-22 12:07 7.51278 48.62524 35870 ft 482 kts 214°
2026-04-22 12:07 7.45494 48.59019 35862 ft 483 kts 214°
2026-04-22 12:08 7.39727 48.55527 35856 ft 482 kts 213°
2026-04-22 12:08 7.33957 48.52033 35850 ft 482 kts 214°
2026-04-22 12:09 7.28255 48.48520 35842 ft 482 kts 214°
2026-04-22 12:09 7.22490 48.44958 35836 ft 482 kts 214°
2026-04-22 12:10 7.16751 48.41416 35831 ft 482 kts 214°
2026-04-22 12:10 7.11041 48.37894 35827 ft 482 kts 214°
2026-04-22 12:11 7.05314 48.34363 35824 ft 482 kts 213°
2026-04-22 12:11 6.99556 48.30815 35823 ft 482 kts 214°
2026-04-22 12:12 6.93816 48.27278 35822 ft 482 kts 213°
2026-04-22 12:12 6.88055 48.23730 35820 ft 483 kts 213°
2026-04-22 12:13 6.82314 48.20195 35822 ft 482 kts 214°
2026-04-22 12:13 6.76581 48.16667 35823 ft 482 kts 213°
2026-04-22 12:14 6.70874 48.13155 35816 ft 482 kts 213°
2026-04-22 12:14 6.65107 48.09607 35803 ft 482 kts 213°
2026-04-22 12:15 6.59396 48.06095 35811 ft 482 kts 213°
2026-04-22 12:15 6.53597 48.02530 35811 ft 482 kts 213°
2026-04-22 12:16 6.47872 47.99011 35807 ft 483 kts 213°
2026-04-22 12:16 6.42130 47.95482 35808 ft 483 kts 213°
2026-04-22 12:17 6.36390 47.91956 35804 ft 482 kts 213°
2026-04-22 12:17 6.30652 47.88432 35804 ft 482 kts 213°
2026-04-22 12:18 6.24931 47.84920 35800 ft 482 kts 213°
2026-04-22 12:18 6.19163 47.81379 35797 ft 483 kts 213°
2026-04-22 12:19 6.13407 47.77846 35796 ft 483 kts 213°
2026-04-22 12:19 6.07641 47.74309 35798 ft 483 kts 213°
2026-04-22 12:20 6.01865 47.70766 35796 ft 482 kts 213°
2026-04-22 12:20 5.96151 47.67262 35793 ft 481 kts 213°
2026-04-22 12:21 5.90407 47.63741 35798 ft 481 kts 213°
2026-04-22 12:21 5.84646 47.60210 35796 ft 481 kts 213°
2026-04-22 12:22 5.78897 47.56687 35802 ft 482 kts 213°
2026-04-22 12:22 5.73154 47.53169 35807 ft 482 kts 213°
2026-04-22 12:23 5.67427 47.49661 35807 ft 482 kts 213°
2026-04-22 12:23 5.61669 47.46160 35806 ft 482 kts 213°
2026-04-22 12:24 5.55919 47.42690 35802 ft 482 kts 213°
2026-04-22 12:24 5.50109 47.39184 35806 ft 482 kts 213°
2026-04-22 12:25 5.44366 47.35717 35797 ft 482 kts 213°
2026-04-22 12:25 5.38572 47.32221 35797 ft 483 kts 213°
2026-04-22 12:26 5.32804 47.28740 35798 ft 483 kts 213°
2026-04-22 12:26 5.27013 47.25246 35791 ft 483 kts 212°
2026-04-22 12:27 5.21237 47.21762 35790 ft 483 kts 212°
2026-04-22 12:27 5.15459 47.18278 35782 ft 483 kts 212°
2026-04-22 12:28 5.09675 47.14790 35788 ft 483 kts 213°
2026-04-22 12:28 5.03918 47.11320 35784 ft 483 kts 213°
2026-04-22 12:29 4.98132 47.07833 35783 ft 484 kts 213°
2026-04-22 12:29 4.92345 47.04345 35783 ft 484 kts 212°
2026-04-22 12:30 4.83669 46.99119 35776 ft 484 kts 212°
2026-04-22 12:31 4.77863 46.95623 35786 ft 484 kts 213°
2026-04-22 12:31 4.72106 46.92156 35794 ft 483 kts 213°
2026-04-22 12:32 4.65352 46.88090 35794 ft 483 kts 213°
2026-04-22 12:32 4.57619 46.83435 35797 ft 483 kts 213°
2026-04-22 12:33 4.51838 46.79956 35792 ft 484 kts 212°
2026-04-22 12:33 4.46091 46.76500 35794 ft 484 kts 213°
2026-04-22 12:34 4.40294 46.73013 35795 ft 484 kts 213°
2026-04-22 12:34 4.34497 46.69526 35788 ft 483 kts 213°
2026-04-22 12:35 4.28700 46.66040 35789 ft 484 kts 213°
2026-04-22 12:35 4.22939 46.62577 35784 ft 484 kts 213°
2026-04-22 12:36 4.17138 46.59090 35785 ft 484 kts 213°
2026-04-22 12:36 4.11357 46.55616 35785 ft 484 kts 213°
2026-04-22 12:37 4.05603 46.52158 35792 ft 484 kts 212°
2026-04-22 12:37 3.99787 46.48664 35792 ft 484 kts 213°
2026-04-22 12:38 3.93980 46.45176 35793 ft 484 kts 213°
2026-04-22 12:38 3.88202 46.41707 35801 ft 484 kts 213°
2026-04-22 12:39 3.79500 46.36481 35796 ft 483 kts 213°
2026-04-22 12:40 3.73709 46.33004 35798 ft 484 kts 212°
2026-04-22 12:40 3.67913 46.29525 35800 ft 484 kts 212°
2026-04-22 12:41 3.61172 46.25480 35802 ft 484 kts 213°
2026-04-22 12:41 3.56327 46.22573 35808 ft 484 kts 213°
2026-04-22 12:42 3.50554 46.19109 35807 ft 484 kts 213°
2026-04-22 12:42 3.44755 46.15630 35805 ft 483 kts 213°
2026-04-22 12:43 3.38955 46.12151 35799 ft 483 kts 213°
2026-04-22 12:43 3.33178 46.08687 35802 ft 483 kts 213°
2026-04-22 12:44 3.27417 46.05233 35800 ft 484 kts 213°
2026-04-22 12:44 3.21636 46.01766 35803 ft 484 kts 213°
2026-04-22 12:45 3.15833 45.98288 35801 ft 484 kts 213°
2026-04-22 12:45 3.10048 45.94820 35799 ft 483 kts 212°
2026-04-22 12:46 3.04277 45.91362 35798 ft 483 kts 213°
2026-04-22 12:46 2.98525 45.87915 35796 ft 482 kts 213°
2026-04-22 12:47 2.92740 45.84449 35794 ft 483 kts 213°
2026-04-22 12:47 2.86027 45.80427 35795 ft 483 kts 212°
2026-04-22 12:48 2.81234 45.77556 35800 ft 482 kts 213°
2026-04-22 12:48 2.75442 45.74087 35802 ft 482 kts 213°
2026-04-22 12:49 2.69714 45.70657 35810 ft 481 kts 213°
2026-04-22 12:49 2.63924 45.67190 35811 ft 482 kts 213°
2026-04-22 12:50 2.58169 45.63744 35806 ft 481 kts 212°
2026-04-22 12:50 2.52408 45.60295 35807 ft 480 kts 213°
2026-04-22 12:51 2.46659 45.56853 35806 ft 480 kts 212°
2026-04-22 12:51 2.40928 45.53423 35807 ft 481 kts 212°
2026-04-22 12:52 2.35174 45.49979 35808 ft 481 kts 212°
2026-04-22 12:52 2.29450 45.46553 35809 ft 481 kts 212°
2026-04-22 12:53 2.23686 45.43105 35810 ft 480 kts 212°
2026-04-22 12:53 2.17947 45.39671 35812 ft 480 kts 212°
2026-04-22 12:54 2.12188 45.36225 35806 ft 480 kts 212°
2026-04-22 12:54 2.06463 45.32800 35800 ft 480 kts 212°
2026-04-22 12:55 2.00698 45.29352 35803 ft 481 kts 212°
2026-04-22 12:55 1.95119 45.25667 35801 ft 480 kts 216°
2026-04-22 12:56 1.89614 45.21904 35801 ft 480 kts 216°
2026-04-22 12:56 1.84088 45.18146 35796 ft 480 kts 215°
2026-04-22 12:57 1.78548 45.14388 35795 ft 480 kts 215°
2026-04-22 12:57 1.73035 45.10654 35793 ft 479 kts 215°
2026-04-22 12:58 1.67498 45.06908 35793 ft 479 kts 215°
2026-04-22 12:58 1.61996 45.03186 35795 ft 478 kts 215°
2026-04-22 12:59 1.56488 44.99462 35798 ft 479 kts 215°
2026-04-22 12:59 1.50946 44.95715 35806 ft 478 kts 215°
2026-04-22 13:00 1.45427 44.91985 35806 ft 479 kts 215°
2026-04-22 13:00 1.39890 44.88242 35806 ft 478 kts 215°
2026-04-22 13:01 1.34367 44.84510 35806 ft 477 kts 215°
2026-04-22 13:01 1.28844 44.80778 35805 ft 476 kts 215°
2026-04-22 13:02 1.22449 44.76456 35805 ft 476 kts 215°
2026-04-22 13:02 1.17859 44.73355 35806 ft 477 kts 215°
2026-04-22 13:03 1.12338 44.69624 35806 ft 476 kts 215°
2026-04-22 13:03 1.06832 44.65904 35806 ft 476 kts 215°
2026-04-22 13:04 1.01364 44.62210 35807 ft 475 kts 215°
2026-04-22 13:04 0.95884 44.58508 35805 ft 476 kts 215°
2026-04-22 13:05 0.90357 44.54774 35806 ft 475 kts 215°
2026-04-22 13:05 0.84884 44.51076 35806 ft 475 kts 215°
2026-04-22 13:06 0.79398 44.47371 35809 ft 475 kts 215°
2026-04-22 13:06 0.73906 44.43660 35813 ft 475 kts 215°
2026-04-22 13:07 0.68448 44.39973 35812 ft 475 kts 215°
2026-04-22 13:07 0.62958 44.36266 35810 ft 475 kts 215°
2026-04-22 13:08 0.57470 44.32559 35816 ft 474 kts 215°
2026-04-22 13:08 0.52023 44.28880 35815 ft 474 kts 215°
2026-04-22 13:09 0.46550 44.25183 35814 ft 474 kts 215°
2026-04-22 13:09 0.41075 44.21486 35810 ft 474 kts 215°
2026-04-22 13:10 0.35572 44.17768 35812 ft 474 kts 215°
2026-04-22 13:10 0.30095 44.14070 35819 ft 475 kts 215°
2026-04-22 13:11 0.24621 44.10373 35824 ft 473 kts 215°
2026-04-22 13:11 0.19168 44.06690 35820 ft 473 kts 215°
2026-04-22 13:12 0.12784 44.02378 35816 ft 473 kts 215°
2026-04-22 13:12 0.08267 43.99327 35807 ft 472 kts 215°
2026-04-22 13:13 0.02796 43.95633 35806 ft 473 kts 215°
2026-04-22 13:13 -0.02679 43.91935 35805 ft 473 kts 215°
2026-04-22 13:14 -0.08119 43.88262 35805 ft 472 kts 215°
2026-04-22 13:14 -0.13601 43.84559 35804 ft 472 kts 215°
2026-04-22 13:15 -0.19010 43.80906 35805 ft 472 kts 215°
2026-04-22 13:15 -0.24460 43.77225 35805 ft 472 kts 215°
2026-04-22 13:16 -0.29932 43.73530 35806 ft 473 kts 215°
2026-04-22 13:16 -0.35370 43.69857 35806 ft 473 kts 215°
2026-04-22 13:17 -0.40854 43.66153 35806 ft 472 kts 215°
2026-04-22 13:17 -0.46309 43.62469 35804 ft 473 kts 215°
2026-04-22 13:18 -0.51735 43.58804 35805 ft 472 kts 215°
2026-04-22 13:18 -0.57219 43.55100 35804 ft 472 kts 215°
2026-04-22 13:19 -0.62642 43.51437 35805 ft 472 kts 215°
2026-04-22 13:19 -0.68078 43.47766 35806 ft 471 kts 215°
2026-04-22 13:20 -0.73523 43.44087 35811 ft 471 kts 215°
2026-04-22 13:20 -0.78962 43.40414 35821 ft 471 kts 215°
2026-04-22 13:21 -0.84399 43.36740 35823 ft 471 kts 215°
2026-04-22 13:21 -0.89722 43.33144 35827 ft 471 kts 215°
2026-04-22 13:22 -0.95146 43.29480 35828 ft 471 kts 215°
2026-04-22 13:22 -1.00590 43.25803 35827 ft 471 kts 215°
2026-04-22 13:23 -1.06031 43.22127 35830 ft 472 kts 215°
2026-04-22 13:23 -1.11489 43.18439 35828 ft 471 kts 215°
2026-04-22 13:24 -1.16921 43.14768 35829 ft 471 kts 215°
2026-04-22 13:24 -1.22346 43.11102 35829 ft 470 kts 214°
2026-04-22 13:25 -1.27779 43.07431 35828 ft 470 kts 215°
2026-04-22 13:25 -1.33249 43.03735 35827 ft 470 kts 215°
2026-04-22 13:26 -1.38705 43.00047 35828 ft 470 kts 214°
2026-04-22 13:26 -1.44114 42.96391 35828 ft 469 kts 214°
2026-04-22 13:27 -1.49545 42.92721 35822 ft 469 kts 214°
2026-04-22 13:27 -1.54964 42.89057 35818 ft 469 kts 214°
2026-04-22 13:28 -1.60390 42.85390 35814 ft 468 kts 214°
2026-04-22 13:28 -1.65798 42.81735 35812 ft 469 kts 214°
2026-04-22 13:29 -1.71259 42.78043 35816 ft 468 kts 214°
2026-04-22 13:29 -1.76670 42.74384 35822 ft 468 kts 214°
2026-04-22 13:30 -1.82093 42.70717 35822 ft 468 kts 214°
2026-04-22 13:30 -1.87499 42.67061 35823 ft 468 kts 214°
2026-04-22 13:31 -1.92888 42.63417 35823 ft 468 kts 214°
2026-04-22 13:31 -1.98250 42.59790 35825 ft 467 kts 214°
2026-04-22 13:32 -2.04486 42.55517 35823 ft 467 kts 215°
2026-04-22 13:32 -2.08930 42.52430 35824 ft 467 kts 215°
2026-04-22 13:33 -2.14309 42.48695 35827 ft 467 kts 215°
2026-04-22 13:33 -2.19675 42.44971 35826 ft 468 kts 215°
2026-04-22 13:34 -2.25011 42.41179 35829 ft 468 kts 217°
2026-04-22 13:34 -2.30267 42.37282 35827 ft 467 kts 217°
2026-04-22 13:35 -2.35519 42.33396 35827 ft 467 kts 217°
2026-04-22 13:35 -2.40752 42.29530 35826 ft 467 kts 216°
2026-04-22 13:36 -2.45993 42.25661 35826 ft 467 kts 216°
2026-04-22 13:36 -2.51254 42.21778 35828 ft 468 kts 216°
2026-04-22 13:37 -2.56517 42.17896 35827 ft 469 kts 216°
2026-04-22 13:37 -2.62656 42.13366 35826 ft 468 kts 217°
2026-04-22 13:38 -2.67039 42.10132 35826 ft 468 kts 216°
2026-04-22 13:38 -2.74948 42.04296 35827 ft 468 kts 216°
2026-04-22 13:39 -2.80205 42.00416 35836 ft 470 kts 216°
2026-04-22 13:39 -2.85447 41.96547 35844 ft 470 kts 216°
2026-04-22 13:40 -2.90719 41.92655 35845 ft 470 kts 216°
2026-04-22 13:40 -2.96019 41.88742 35846 ft 471 kts 216°
2026-04-22 13:41 -3.01282 41.84856 35846 ft 470 kts 216°
2026-04-22 13:41 -3.06574 41.80949 35844 ft 470 kts 216°
2026-04-22 13:42 -3.11836 41.77062 35850 ft 470 kts 216°
2026-04-22 13:42 -3.17132 41.73150 35845 ft 470 kts 216°
2026-04-22 13:43 -3.22378 41.69275 35845 ft 470 kts 216°
2026-04-22 13:43 -3.27677 41.65359 35843 ft 470 kts 216°
2026-04-22 13:44 -3.32937 41.61473 35841 ft 470 kts 216°
2026-04-22 13:44 -3.38196 41.57586 35829 ft 471 kts 217°
2026-04-22 13:45 -3.43468 41.53689 35837 ft 470 kts 216°
2026-04-22 13:45 -3.48729 41.49800 35832 ft 470 kts 217°
2026-04-22 13:46 -3.54026 41.45884 35827 ft 471 kts 217°
2026-04-22 13:46 -3.59316 41.41972 35827 ft 474 kts 217°
2026-04-22 13:47 -3.64601 41.38064 35824 ft 472 kts 217°
2026-04-22 13:47 -3.70801 41.33478 35826 ft 474 kts 217°
2026-04-22 13:48 -3.75225 41.30204 35824 ft 474 kts 217°
2026-04-22 13:48 -3.80506 41.26297 35831 ft 473 kts 217°
2026-04-22 13:49 -3.85816 41.22368 35837 ft 476 kts 217°
2026-04-22 13:49 -3.91158 41.18414 35848 ft 477 kts 217°
2026-04-22 13:50 -3.96509 41.14452 35844 ft 477 kts 217°
2026-04-22 13:50 -4.01991 41.10723 35849 ft 477 kts 212°
2026-04-22 13:51 -4.07707 41.07247 35845 ft 476 kts 212°
2026-04-22 13:51 -4.13347 41.03816 35847 ft 477 kts 212°
2026-04-22 13:52 -4.19042 41.00348 35847 ft 477 kts 212°
2026-04-22 13:52 -4.24717 40.96890 35847 ft 478 kts 212°
2026-04-22 13:53 -4.30397 40.93427 35848 ft 478 kts 212°
2026-04-22 13:53 -4.36078 40.89962 35847 ft 478 kts 212°
2026-04-22 13:54 -4.41783 40.86483 35847 ft 477 kts 212°
2026-04-22 13:54 -4.47473 40.83012 35847 ft 477 kts 212°
2026-04-22 13:55 -4.53129 40.79560 35847 ft 476 kts 212°
2026-04-22 13:55 -4.59727 40.75533 35847 ft 476 kts 212°
2026-04-22 13:56 -4.64434 40.72660 35847 ft 476 kts 212°
2026-04-22 13:56 -4.70101 40.69200 35847 ft 477 kts 212°
2026-04-22 13:57 -4.75811 40.65712 35847 ft 478 kts 212°
2026-04-22 13:57 -4.82387 40.61606 35842 ft 477 kts 217°
2026-04-22 13:58 -4.86795 40.58190 35846 ft 477 kts 219°
2026-04-22 13:58 -4.91997 40.54092 35846 ft 476 kts 219°
2026-04-22 13:59 -4.97250 40.49957 35847 ft 476 kts 219°
2026-04-22 13:59 -5.02444 40.45869 35849 ft 477 kts 218°
2026-04-22 14:00 -5.07681 40.41746 35855 ft 477 kts 219°
2026-04-22 14:00 -5.13000 40.37774 35855 ft 477 kts 212°
2026-04-22 14:01 -5.18677 40.34364 35860 ft 478 kts 211°
2026-04-22 14:01 -5.25371 40.30374 35864 ft 477 kts 211°
2026-04-22 14:02 -5.30147 40.27524 35867 ft 478 kts 211°
2026-04-22 14:02 -5.35867 40.24108 35868 ft 478 kts 211°
2026-04-22 14:03 -5.41648 40.20655 35867 ft 480 kts 211°
2026-04-22 14:03 -5.48355 40.16647 35867 ft 480 kts 211°
2026-04-22 14:04 -5.53140 40.13786 35869 ft 480 kts 211°
2026-04-22 14:04 -5.58868 40.10361 35868 ft 480 kts 211°
2026-04-22 14:05 -5.64672 40.06890 35867 ft 480 kts 211°
2026-04-22 14:05 -5.71353 40.02892 35420 ft 475 kts 210°
2026-04-22 14:06 -5.73240 40.01763 34802 ft 477 kts 210°
2026-04-22 14:06 -5.76120 40.00039 33908 ft 479 kts 210°
2026-04-22 14:06 -5.79007 39.98312 33075 ft 479 kts 210°
2026-04-22 14:06 -5.81848 39.96611 32273 ft 479 kts 210°
2026-04-22 14:07 -5.85670 39.94323 31175 ft 481 kts 209°
2026-04-22 14:07 -5.87622 39.93154 30619 ft 482 kts 208°
2026-04-22 14:07 -5.91413 39.90883 29967 ft 474 kts 208°
2026-04-22 14:07 -5.94222 39.89200 29474 ft 469 kts 208°
2026-04-22 14:08 -5.96115 39.88067 29119 ft 475 kts 208°
2026-04-22 14:08 -5.98974 39.86356 28556 ft 484 kts 207°
2026-04-22 14:08 -6.01877 39.84617 27995 ft 482 kts 208°
2026-04-22 14:08 -6.05680 39.82337 27244 ft 476 kts 207°
2026-04-22 14:09 -6.07565 39.81207 26866 ft 474 kts 208°
2026-04-22 14:09 -6.10418 39.79496 26295 ft 470 kts 207°
2026-04-22 14:09 -6.13211 39.77822 25722 ft 467 kts 207°
2026-04-22 14:09 -6.16725 39.75335 24959 ft 466 kts 218°
2026-04-22 14:10 -6.19115 39.73106 24374 ft 464 kts 221°
2026-04-22 14:10 -6.21425 39.70884 23792 ft 461 kts 221°
2026-04-22 14:10 -6.22961 39.69404 23404 ft 459 kts 221°
2026-04-22 14:10 -6.25262 39.67186 22820 ft 457 kts 221°
2026-04-22 14:11 -6.27553 39.64977 22237 ft 454 kts 221°
2026-04-22 14:11 -6.29833 39.62779 21658 ft 452 kts 221°
2026-04-22 14:11 -6.32081 39.60611 21071 ft 449 kts 221°
2026-04-22 14:11 -6.35080 39.57720 20279 ft 447 kts 222°
2026-04-22 14:12 -6.36567 39.56286 19879 ft 445 kts 222°
2026-04-22 14:12 -6.38788 39.54145 19280 ft 443 kts 223°
2026-04-22 14:12 -6.41002 39.52009 18679 ft 441 kts 223°
2026-04-22 14:12 -6.43932 39.49182 17880 ft 437 kts 223°
2026-04-22 14:13 -6.45417 39.47750 17478 ft 435 kts 223°
2026-04-22 14:13 -6.47586 39.45658 16888 ft 432 kts 224°
2026-04-22 14:13 -6.49750 39.43568 16293 ft 429 kts 224°
2026-04-22 14:13 -6.52581 39.40836 15524 ft 425 kts 223°
2026-04-22 14:14 -6.54020 39.39447 15167 ft 421 kts 223°
2026-04-22 14:14 -6.56115 39.37425 14649 ft 417 kts 223°
2026-04-22 14:14 -6.58184 39.35426 14131 ft 412 kts 223°
2026-04-22 14:14 -6.60247 39.33435 13601 ft 408 kts 223°
2026-04-22 14:15 -6.62274 39.31477 13092 ft 403 kts 223°
2026-04-22 14:15 -6.64955 39.28887 12400 ft 394 kts 223°
2026-04-22 14:15 -6.66254 39.27628 12081 ft 391 kts 224°
2026-04-22 14:15 -6.68805 39.25078 11433 ft 378 kts 224°
2026-04-22 14:16 -6.70020 39.23859 11102 ft 372 kts 224°
2026-04-22 14:16 -6.72406 39.21463 10507 ft 351 kts 223°
2026-04-22 14:16 -6.73543 39.20323 10246 ft 340 kts 223°
2026-04-22 14:16 -6.75194 39.18669 9881 ft 326 kts 223°
2026-04-22 14:17 -6.76758 39.17102 9532 ft 314 kts 223°
2026-04-22 14:17 -6.78295 39.15563 9180 ft 304 kts 223°
2026-04-22 14:17 -6.79771 39.14087 8875 ft 294 kts 222°
2026-04-22 14:17 -6.81186 39.12670 8846 ft 278 kts 222°
2026-04-22 14:18 -6.82527 39.11327 8838 ft 264 kts 222°
2026-04-22 14:18 -6.83811 39.10043 8650 ft 260 kts 222°
2026-04-22 14:18 -6.85526 39.08330 8204 ft 261 kts 222°
2026-04-22 14:18 -6.86803 39.07051 7950 ft 259 kts 222°
2026-04-22 14:19 -6.88093 39.05760 7671 ft 258 kts 222°
2026-04-22 14:19 -6.88928 39.04924 7502 ft 256 kts 222°
2026-04-22 14:19 -6.90616 39.03233 7132 ft 255 kts 222°
2026-04-22 14:19 -6.91455 39.02394 6952 ft 254 kts 222°
2026-04-22 14:20 -6.94203 39.00686 6849 ft 218 kts 183°
2026-04-22 14:20 -6.95667 39.00765 6637 ft 207 kts 161°
2026-04-22 14:20 -6.97311 39.01683 6268 ft 201 kts 137°
2026-04-22 14:21 -6.99084 39.03239 5690 ft 207 kts 137°
2026-04-22 14:21 -7.00186 39.04200 5395 ft 208 kts 137°
2026-04-22 14:22 -7.02731 39.06438 4786 ft 207 kts 137°
2026-04-22 14:22 -7.03803 39.07390 4540 ft 205 kts 137°
2026-04-22 14:22 -7.05950 39.09280 4049 ft 203 kts 144°
2026-04-22 14:23 -7.07288 39.09714 3779 ft 205 kts 179°
2026-04-22 14:23 -7.08642 39.09269 3528 ft 207 kts 212°
2026-04-22 14:23 -7.09315 39.08588 3372 ft 208 kts 236°
2026-04-22 14:23 -7.09610 39.06741 3082 ft 206 kts 287°
2026-04-22 14:24 -7.09173 39.05893 2973 ft 200 kts 313°
2026-04-22 14:24 -7.08000 39.05175 2829 ft 200 kts 352°
2026-04-22 14:24 -7.06630 39.05150 2716 ft 197 kts
2026-04-22 14:24 -7.05265 39.05244 2640 ft 195 kts
2026-04-22 14:25 -7.03892 39.05351 2567 ft 194 kts 13°
2026-04-22 14:25 -7.02267 39.06010 2465 ft 189 kts 40°
2026-04-22 14:25 -7.01580 39.06581 2417 ft 188 kts 46°
2026-04-22 14:25 -7.00645 39.07492 2345 ft 187 kts 49°
2026-04-22 14:26 -6.99720 39.08421 2314 ft 185 kts 49°
2026-04-22 14:26 -6.98488 39.09653 2313 ft 187 kts 48°
2026-04-22 14:26 -6.97870 39.10267 2305 ft 186 kts 48°
2026-04-22 14:26 -6.96686 39.11443 2295 ft 171 kts 48°
2026-04-22 14:27 -6.96127 39.12000 2275 ft 174 kts 48°
2026-04-22 14:27 -6.95256 39.12868 2034 ft 170 kts 48°
2026-04-22 14:27 -6.94429 39.13689 1824 ft 168 kts 48°
2026-04-22 14:27 -6.93339 39.14775 1537 ft 161 kts 48°
2026-04-22 14:28 -6.92811 39.15300 1400 ft 155 kts 49°
2026-04-22 14:28 -6.91810 39.16297 1151 ft 153 kts 48°
2026-04-22 14:28 -6.91060 39.17045 967 ft 150 kts 48°
2026-04-22 14:28 -6.90560 39.17527 810 ft 150 kts 46°
2026-04-22 14:29 -6.89559 39.18502 543 ft 152 kts 47°
2026-04-22 14:29 -6.88808 39.19257 366 ft 152 kts 48°
2026-04-22 14:29 -6.88059 39.20015 198 ft 148 kts 47°
2026-04-22 14:29 -6.87419 39.20660 188 ft 110 kts 45°
2026-04-22 14:30 -6.86980 39.21099 190 ft 66 kts 45°
2026-04-22 14:30 -6.86754 39.21323 187 ft 32 kts 43°
2026-04-22 14:30 -6.86599 39.21477 184 ft 30 kts 45°
2026-04-22 14:30 -6.86457 39.21621 180 ft 22 kts 45°
2026-04-22 14:31 -6.86378 39.21666 180 ft 10 kts 352°
2026-04-22 14:31 -6.86329 39.21626 182 ft 7 kts 293°
2026-04-22 14:31 -6.86326 39.21582 183 ft 5 kts 265°
2026-04-22 14:31 -6.86332 39.21552 184 ft 4 kts 255°
2026-04-22 14:32 -6.86341 39.21520 186 ft 5 kts 255°
2026-04-22 14:32 -6.86363 39.21483 187 ft 7 kts 227°
2026-04-22 14:32 -6.86404 39.21442 187 ft 9 kts 224°
2026-04-22 14:32 -6.86431 39.21409 188 ft 8 kts 253°
2026-04-22 14:33 -6.86418 39.21362 189 ft 6 kts 287°
2026-04-22 14:33 -6.86432 39.21314 189 ft 6 kts 236°
2026-04-22 14:33 -6.86466 39.21275 189 ft 8 kts 224°
2026-04-22 14:33 -6.86499 39.21243 188 ft 10 kts 224°
2026-04-22 14:34 -6.86571 39.21171 188 ft 8 kts 225°
2026-04-22 14:34 -6.86577 39.21157 188 ft 2 kts 274°
2026-04-22 14:34 -6.86569 39.21143 188 ft 1 kts 315°
2026-04-22 14:34 -6.86554 39.21127 189 ft 3 kts 315°
2026-04-22 14:35 -6.86544 39.21118 189 ft 2 kts 315°
2026-04-22 14:35 -6.86535 39.21108 190 ft 1 kts 315°
2026-04-22 14:35 -6.86532 39.21105 190 ft 0 kts 315°